Printer-friendly version

IAU Minor Planet Center

Minor Planet Center

MPEC 2007-H25 : COMET P/2007 C1 (CHRISTENSEN)

The following Minor Planet Electronic Circular may be linked-to from your own Web pages, but must not otherwise be redistributed electronically.


Read MPEC 2007-H24 Read MPEC 2007-H26


M.P.E.C. 2007-H25                                Issued 2007 Apr. 20, 16:44 UT

     The Minor Planet Electronic Circulars contain information on unusual
         minor planets and routine data on comets.  They are published
   on behalf of Commission 20 of the International Astronomical Union by the
          Minor Planet Center, Smithsonian Astrophysical Observatory,
                          Cambridge, MA 02138, U.S.A.

             Prepared using the Tamkin Foundation Computer Network

                              MPC@CFA.HARVARD.EDU
          URL http://www.cfa.harvard.edu/iau/mpc.html  ISSN 1523-6714

                         COMET P/2007 C1 (CHRISTENSEN)

Observations:
    PK07C010  C2007 04 07.84664 09 57 02.60 +25 05 59.8          19.3 N EH025213
    PK07C010  C2007 04 07.85005 09 57 02.68 +25 05 57.8          19.3 N EH025213
    PK07C010  C2007 04 07.85232 09 57 02.73 +25 05 56.7          19.3 N EH025213
    PK07C010  C2007 04 12.86019 09 59 31.01 +24 20 24.8          19.2 T EH025561
    PK07C010  C2007 04 12.86382 09 59 31.26 +24 20 22.2          18.9 T EH025561
    PK07C010  C2007 04 12.86747 09 59 31.23 +24 20 18.8          19.6 T EH025561

Observer details:
213 Observatorio Montcabre.  Observer R. Naves.  Measurer M. Campas.  0.30-m
    f/10 Schmidt-Cassegrain + CCD.
561 Piszkesteto Stn. (Konkoly).  Observer J. Kelemen.  0.6-m Schmidt + CCD.

Orbital elements:
    P/2007 C1 (Christensen)
T 2007 Mar. 5.2614 TT                                   MPC
q   2.050811             (2000.0)            P               Q
n   0.1511158      Peri.   95.6147      -0.8806731      -0.4589990
a   3.490836       Node    57.1146      +0.3602871      -0.8095972
e   0.412516       Incl.    8.0223      +0.3075843      -0.3658856
P   6.52
From 133 observations 2007 Feb. 9-Apr. 12.

Brian G. Marsden             (C) Copyright 2007 MPC           M.P.E.C. 2007-H25

Read MPEC 2007-H24 Read MPEC 2007-H26


Our Web policy. Index to the CBAT/MPC/ICQ pages.


Valid HTML 4.01!